Location: Castiglione Fibocchi
(43.5333°N, 11.7667°E)
Time: 12:10:16
(UTC+00:00)

CZ-2C R/B - Pass Details

Date: 15 August 2020
Orbit: 501 x 568 km, 97.7° (Epoch: 24 September)

Event Time Altitude Azimuth Distance (km) Brightness Sun altitude
Rises 03:43:38 0° 357° (N) 2,676 6.7 -6.6°
Reaches altitude 10° 03:46:14 10° 339° (NNW) 1,768 5.5 -6.1°
Maximum altitude 03:48:53 18° 294° (WNW) 1,307 4.4 -5.7°
Drops below altitude 10° 03:51:30 10° 250° (WSW) 1,735 4.7 -5.3°
Enters shadow 03:52:25 - 241° (WSW) 2,026 5.0 -5.1°
